Location: Bezolles
(43.6179°N, 0.3566°E)
Time: 11:57:24
(UTC+00:00)

Daily predictions for brighter satellites

Satellite Brightness Start Highest point End
(mag) Time Altitude Azimuth Time Altitude Azimuth Time Altitude Azimuth
Cosmos 962 Rocket 4.5 16:48:22 10° N 16:54:38 71° E 17:00:47 10° SSE
Cosmos 2297 3.7 16:48:57 10° NNW 16:54:39 70° ENE 17:00:21 10° SSE
SL-16 R/B 2.2 16:51:29 10° SSW 16:57:08 79° ESE 17:02:49 10° NNE
CZ-4B R/B 3.0 16:57:17 10° NE 16:59:20 16° E 17:01:23 10° SE
Landsat 5 3.6 16:56:08 10° NNE 17:00:38 79° ESE 17:05:09 10° S
BREEZE-M DEB (TANK) 1.7 16:58:22 10° WSW 17:01:32 88° SSE 17:03:26 11° ENE
SMAP 3.2 17:00:29 10° SSE 17:05:00 55° ENE 17:09:34 10° N
USA 215 4.5 17:00:02 10° ENE 17:05:08 24° SE 17:10:13 10° S
Sich 1 3.3 17:04:22 10° NNW 17:08:43 72° W 17:13:01 10° S
YAOGAN 1 4.5 17:09:19 10° ENE 17:09:19 10° ENE 17:09:50 10° NE
Cosmos 1151 Rocket 3.1 17:07:13 10° S 17:11:23 56° E 17:15:35 10° NNE
CZ-4C R/B 3.4 17:08:00 10° N 17:11:38 68° WNW 17:15:11 10° SSW
Cosmos 1470 Rocket 4.1 17:09:35 10° N 17:13:35 36° ENE 17:17:34 10° SE
Cosmos 1515 Rocket 4.2 17:15:30 10° SSE 17:19:28 34° E 17:23:28 10° NNE
CZ-2C R/B 4.2 17:17:42 10° ESE 17:21:03 19° ENE 17:24:20 10° NNE
Cosmos 482 Debris 2.3 17:20:46 10° NW 17:22:32 59° NNE 17:23:46 18° ESE
SL-8 Rocket 4.0 17:16:32 10° N 17:22:49 79° E 17:29:07 10° S
Cosmos 2341 Rocket 4.2 17:18:03 10° N 17:24:22 78° W 17:30:42 10° S
Cosmos 1238 Rocket 4.5 17:22:55 10° NNE 17:25:45 17° ENE 17:28:54 10° ESE
Radarsat Rocket 4.4 17:20:46 10° S 17:26:51 74° WSW 17:33:44 10° NNW
COSMO-SKYMED 1 3.5 17:23:18 10° NE 17:27:04 28° E 17:30:47 10° SSE
X-37B 0.6 17:24:15 10° WSW 17:27:25 76° SSE 17:29:28 20° E
Cosmos 1689 Rocket 4.3 17:29:01 11° ESE 17:29:01 11° ESE 17:29:24 10° SE
Cosmos 1959 Rocket 4.5 17:22:01 10° N 17:28:25 72° E 17:34:43 10° SSE
USA 281 4.0 17:23:06 10° ESE 17:28:26 27° NE 17:33:47 10° N
Cosmos 2228 Rocket 4.2 17:28:32 10° SE 17:32:08 24° E 17:34:29 16° NE
CORIOLIS 4.1 17:26:55 10° SSE 17:32:20 85° ENE 17:37:48 10° NNW
USA 81 4.0 17:27:05 10° N 17:32:24 81° E 17:37:41 10° S
Helios 1A Rocket 4.5 17:33:25 17° NE 17:33:25 17° NE 17:35:13 10° NNE
Meteor 1-4 Rocket 2.4 17:29:46 10° S 17:33:20 67° E 17:36:52 10° NNE
Cosmos 2285 Rocket 4.2 17:28:28 10° NNW 17:34:53 79° WSW 17:41:12 10° SSE
Cosmos 1812 3.9 17:32:58 10° SE 17:35:58 22° E 17:36:35 21° ENE
H-2A R/B 3.3 17:35:18 18° ENE 17:35:58 18° ENE 17:39:23 10° NNE
Cosmos 1939 Rocket 3.2 17:34:36 10° SE 17:38:15 40° ENE 17:41:56 10° N
Cosmos 1821 Rocket 4.5 17:32:37 10° N 17:38:24 37° ENE 17:44:12 10° SE
USA 267 4.1 17:34:11 16° ENE 17:38:28 33° NNE 17:44:08 10° NW
Cosmos 1328 Rocket 3.6 17:35:00 10° S 17:39:19 81° W 17:43:41 10° N
CZ-4 R/B 2.7 17:41:26 20° NE 17:41:26 20° NE 17:43:46 10° NNE
BREEZE-M DEB (TANK) 3.6 17:38:08 10° SSW 17:41:36 23° SSE 17:42:53 18° ESE
Cosmos 44 Rocket 4.2 17:38:11 10° NNW 17:42:44 30° NE 17:45:09 21° E
Cosmos 1933 Rocket 3.7 17:39:21 10° N 17:43:43 52° ENE 17:48:04 10° SSE
IRS-1C Rocket 4.3 17:39:38 10° SE 17:44:38 45° ENE 17:49:39 10° N
Cosmos 1602 3.6 17:42:21 10° N 17:46:17 87° E 17:50:09 10° S
Cosmos 2181 Rocket 4.3 17:40:50 10° SSW 17:47:13 71° W 17:53:34 10° N
H-2A R/B 4.4 17:43:38 10° SSW 17:47:27 32° W 17:51:10 10° NNW
Lacrosse 4 Rocket 3.4 17:46:02 10° SE 17:46:58 13° SE 17:46:58 13° SE
NOAA 11 4.1 17:42:56 10° SSE 17:48:21 89° ENE 17:53:50 10° NNW
Cosmos 1680 Rocket 4.4 17:44:18 10° SSE 17:48:44 28° E 17:50:18 24° ENE
Cosmos 2237 Rocket 4.4 17:44:55 10° W 17:48:47 19° NW 17:52:40 10° N
CZ-4B R/B 3.8 17:44:26 10° S 17:49:40 57° WSW 17:54:53 10° NNW
SL-24 R/B 4.1 17:49:33 25° NE 17:51:12 40° E 17:54:39 10° S
Cosmos 1603 3.7 17:47:14 10° S 17:52:44 60° ESE 17:56:56 17° NE
CZ-2D R/B 3.5 17:51:28 10° SE 17:55:06 43° ENE 17:58:45 10° N
Cosmos 1943 3.3 17:50:36 10° S 17:56:07 56° ESE 17:59:58 20° NE
Cosmos 1538 Rocket 4.1 17:52:53 10° SSW 17:58:15 81° WNW 18:03:41 10° NNE
H-2A R/B 3.7 17:55:01 10° N 17:58:49 33° WNW 18:02:41 10° SW
Cosmos 2369 Rocket 2.1 17:53:41 10° NNW 17:59:25 82° ENE 18:05:03 10° SSE
Cosmos 1943 Rocket 2.7 17:55:08 10° NNW 18:00:37 61° WSW 18:06:06 10° S
Cosmos 1782 3.3 17:57:49 10° SSW 18:01:44 61° W 18:05:42 10° N
Meteor 1-14 Rocket 4.3 17:55:50 10° N 18:01:51 89° E 18:07:51 10° S
Okean O Rocket 2.9 17:57:44 10° S 18:01:52 43° W 18:06:04 10° NNW
Meteor 1-5 Rocket 4.3 17:56:09 10° N 18:01:57 55° ENE 18:07:32 10° SSE
Cosmos 1461 4.2 17:59:08 10° SSE 18:02:44 26° ESE 18:02:44 26° ESE
Okean-O 3.0 17:59:21 10° SE 18:03:28 40° ENE 18:07:37 10° N
ISS -2.2 18:03:24 10° NW 18:05:55 23° N 18:05:55 23° N
CENTAUR R/B 3.1 18:01:06 10° S 18:06:11 34° ESE 18:07:44 30° E
SL-08 R/B 4.4 18:06:45 10° N 18:12:54 86° W 18:19:01 10° S
ERS-2 2.6 18:10:45 16° N 18:13:35 61° WNW 18:17:10 10° SSW
NOSS 3-2 (C) 3.8 18:09:14 10° S 18:14:15 36° ESE 18:15:09 34° E
SKYMED 2 3.5 18:11:44 15° NNE 18:15:17 88° WNW 18:19:38 10° SSW
Cosmos 1869 Rocket 3.9 18:14:05 10° N 18:22:43 10° SSE 18:22:47 10° SSE
BREEZE-M DEB (TANK) 3.3 18:09:40 10° SW 18:19:02 71° SSE 18:19:59 50° E
Meteor 1-27 Rocket 4.1 18:15:26 10° SSE 18:20:11 39° E 18:20:11 39° E
Meteor 1-10 Rocket 4.1 18:19:17 10° S 18:24:52 71° E 18:28:49 20° NNE
Lacrosse 5 rocket 3.3 18:23:17 10° WNW 18:25:26 15° NNW 18:25:53 15° NNW
BREEZE-M DEB (TANK) 4.3 18:25:54 10° NW 18:26:37 17° NW 18:26:37 17° NW
FALCON 9 R/B 3.2 18:27:46 10° SSW 18:28:29 13° SSW 18:28:29 13° SSW
Cosmos 371 Rocket 4.4 18:25:20 10° N 18:28:01 28° NNE 18:28:01 28° NNE
CZ-4B R/B 3.5 18:29:34 14° NNW 18:31:34 24° WNW 18:34:10 10° SW
NOSS 3-2 (A) 3.2 18:33:47 10° SW 18:39:23 90° NW 18:41:27 45° NE
SL-16 R/B 4.4 18:37:58 10° W 18:41:56 19° NW 18:45:55 10° N
Cosmos 1500 4.2 18:38:34 10° NNW 18:42:14 45° W 18:45:54 10° SSW
YAOGAN 1 3.7 18:46:29 34° NNW 18:46:29 34° NNW 18:48:58 10° NNW
Cosmos 2239 Rocket 4.4 18:38:55 10° N 18:45:07 84° W 18:51:19 10° S
Cosmos 1535 Rocket 4.3 18:39:55 10° N 18:46:00 65° E 18:52:03 10° SSE
USA 215 3.1 18:46:42 49° NE 18:48:42 86° SE 18:55:15 10° SW
Cosmos 1656 Rocket 4.0 18:48:51 10° NNW 18:54:26 65° WSW 18:58:59 15° S
MOS 1 Rocket 3.7 18:52:44 36° N 18:55:01 78° WNW 19:00:21 10° SSW
USA 238 DEB 3.6 18:52:09 10° SW 18:58:43 80° NW 19:00:34 51° NNE
USA 238 3.6 18:52:13 10° SW 18:58:49 80° NW 19:00:38 52° NNE
Cosmos 158 Rocket 4.5 18:54:55 10° SW 18:59:46 53° WNW 19:00:45 45° NNW
CZ-2C R/B 3.5 18:55:39 10° S 19:00:34 55° W 19:05:19 10° NNW
COSMO-SKYMED 1 4.5 19:00:19 15° NNW 19:03:10 28° WNW 19:06:51 10° SW
X-37B 3.6 19:00:57 10° W 19:01:44 16° W 19:01:44 16° W
Cosmos 1238 Rocket 4.2 19:01:22 10° NNW 19:05:18 44° W 19:10:01 10° SSW
Cosmos 1934 Rocket 4.0 19:01:36 10° N 19:07:59 81° W 19:14:15 10° S
CSL-04 Debris 4.3 19:09:14 69° NW 19:09:14 69° NW 19:14:05 10° NNW
USA 281 3.4 19:05:54 10° SSE 19:12:25 69° WSW 19:19:00 10° NNW
H-2A R/B 2.6 19:15:55 52° NW 19:15:55 52° NW 19:20:02 10° NNW
CZ-4 R/B 3.7 19:17:28 20° NW 19:17:28 20° NW 19:19:07 10° NNW
USA 267 3.3 19:21:32 64° N 19:21:32 64° N 19:27:19 10° NW
Cosmos 44 Rocket 4.4 19:19:30 10° NW 19:23:56 45° W 19:23:56 45° W
Lacrosse 4 Rocket 3.9 19:22:24 10° SW 19:23:20 16° SW 19:23:20 16° SW
CENTAUR R/B 3.5 19:50:43 10° WSW 19:54:58 41° W 19:54:58 41° W
